Precipitable_Water
0.60 0.62 0.66 0.67 0.70 0.71 0.71 0.67 0.65 0.62 0.61 0.60 0.58 0.60 0.59 0.61 0.61 0.64 0.65 0.66 0.67 0.68 0.69 0.70 0.72 0.73 0.64 0.48 0.49 0.70 0.70 0.81 0.87 0.83 0.73 0.70 0.60 0.53 0.38 0.38 0.37 0.32 0.32 0.37 0.55 0.68 0.74
0.56 0.59 0.64 0.69 0.69 0.70 0.73 0.69 0.66 0.63 0.63 0.61 0.60 0.60 0.59 0.60 0.60 0.63 0.63 0.63 0.64 0.66 0.67 0.69 0.72 0.71 0.52 0.35 0.65 0.69 0.66 0.70 0.77 0.77 0.72 0.68 0.62 0.64 0.48 0.43 0.33 0.38 0.29 0.32 0.43 0.59 0.78
0.55 0.57 0.62 0.67 0.69 0.68 0.71 0.69 0.66 0.64 0.62 0.61 0.60 0.59 0.59 0.58 0.59 0.60 0.62 0.61 0.62 0.63 0.64 0.68 0.71 0.65 0.47 0.43 0.65 0.67 0.66 0.67 0.77 0.74 0.69 0.74 0.72 0.59 0.53 0.40 0.47 0.41 0.26 0.23 0.34 0.47 0.60
0.55 0.57 0.62 0.65 0.66 0.64 0.66 0.68 0.64 0.63 0.63 0.62 0.61 0.59 0.58 0.58 0.56 0.58 0.58 0.57 0.61 0.66 0.66 0.67 0.70 0.58 0.38 0.58 0.65 0.62 0.62 0.63 0.68 0.77 0.74 0.78 0.75 0.58 0.53 0.52 0.40 0.29 0.28 0.16 0.20 0.35 0.51
0.53 0.56 0.59 0.64 0.61 0.60 0.61 0.65 0.63 0.62 0.62 0.61 0.58 0.57 0.57 0.56 0.54 0.56 0.56 0.57 0.59 0.65 0.65 0.66 0.55 0.49 0.35 0.57 0.50 0.59 0.61 0.56 0.61 0.67 0.70 0.72 0.61 0.49 0.46 0.36 0.29 0.27 0.20 0.18 0.17 0.27 0.38
0.55 0.55 0.56 0.60 0.60 0.58 0.57 0.61 0.63 0.60 0.61 0.59 0.54 0.53 0.53 0.51 0.53 0.55 0.57 0.56 0.58 0.59 0.57 0.60 0.55 0.37 0.40 0.39 0.51 0.55 0.62 0.61 0.55 0.55 0.51 0.53 0.46 0.38 0.37 0.32 0.21 0.22 0.20 0.24 0.18 0.23 0.29
0.52 0.54 0.56 0.58 0.58 0.57 0.54 0.55 0.61 0.59 0.60 0.59 0.53 0.51 0.50 0.50 0.54 0.56 0.51 0.43 0.36 0.36 0.44 0.39 0.39 0.40 0.42 0.49 0.54 0.48 0.55 0.51 0.51 0.46 0.34 0.44 0.34 0.28 0.33 0.35 0.35 0.32 0.25 0.23 0.26 0.25 0.26
0.53 0.54 0.56 0.57 0.56 0.55 0.54 0.52 0.57 0.59 0.57 0.59 0.54 0.49 0.49 0.52 0.53 0.53 0.49 0.40 0.44 0.49 0.33 0.44 0.46 0.45 0.48 0.51 0.38 0.43 0.53 0.39 0.38 0.31 0.39 0.34 0.28 0.36 0.38 0.38 0.35 0.32 0.26 0.23 0.29 0.30 0.27
0.53 0.55 0.55 0.56 0.57 0.54 0.52 0.50 0.55 0.57 0.55 0.57 0.54 0.50 0.49 0.50 0.52 0.50 0.43 0.46 0.62 0.59 0.35 0.36 0.42 0.42 0.43 0.47 0.37 0.39 0.46 0.41 0.35 0.31 0.32 0.29 0.33 0.39 0.35 0.31 0.28 0.29 0.26 0.25 0.24 0.28 0.31
0.54 0.58 0.56 0.57 0.58 0.55 0.52 0.51 0.52 0.56 0.54 0.52 0.53 0.51 0.51 0.50 0.41 0.47 0.38 0.52 0.57 0.61 0.24 0.28 0.33 0.40 0.44 0.45 0.34 0.46 0.49 0.41 0.36 0.30 0.31 0.29 0.35 0.34 0.32 0.28 0.29 0.22 0.32 0.29 0.25 0.23 0.16
0.55 0.58 0.59 0.58 0.58 0.57 0.52 0.52 0.49 0.52 0.51 0.51 0.51 0.51 0.49 0.52 0.41 0.36 0.43 0.51 0.54 0.46 0.14 0.28 0.32 0.47 0.44 0.39 0.40 0.39 0.50 0.41 0.30 0.30 0.31 0.25 0.28 0.28 0.27 0.30 0.32 0.25 0.32 0.29 0.28 0.24 0.21
0.54 0.58 0.59 0.60 0.58 0.58 0.52 0.51 0.49 0.45 0.48 0.50 0.49 0.51 0.51 0.45 0.49 0.48 0.53 0.51 0.45 0.17 0.12 0.22 0.30 0.31 0.31 0.35 0.38 0.42 0.42 0.44 0.41 0.31 0.30 0.29 0.38 0.34 0.32 0.34 0.34 0.34 0.27 0.26 0.28 0.25 0.16
0.55 0.56 0.60 0.61 0.59 0.60 0.55 0.50 0.50 0.45 0.41 0.42 0.46 0.47 0.50 0.50 0.35 0.54 0.53 0.40 0.17 0.12 0.20 0.18 0.21 0.27 0.29 0.28 0.30 0.35 0.35 0.34 0.32 0.23 0.20 0.24 0.27 0.34 0.36 0.28 0.32 0.30 0.23 0.14 0.15 0.16 0.15
0.55 0.56 0.58 0.61 0.60 0.59 0.58 0.52 0.48 0.44 0.37 0.37 0.42 0.42 0.50 0.53 0.54 0.54 0.45 0.21 0.11 0.16 0.17 0.23 0.22 0.24 0.21 0.26 0.26 0.29 0.29 0.30 0.38 0.37 0.30 0.22 0.17 0.25 0.33 0.28 0.26 0.27 0.25 0.17 0.13 0.13 0.16
0.59 0.57 0.58 0.59 0.64 0.61 0.59 0.57 0.53 0.44 0.38 0.38 0.36 0.39 0.42 0.51 0.53 0.52 0.30 0.14 0.13 0.15 0.19 0.19 0.20 0.17 0.17 0.21 0.23 0.24 0.25 0.25 0.31 0.35 0.28 0.28 0.23 0.29 0.32 0.34 0.32 0.27 0.22 0.28 0.20 0.21 0.16
0.63 0.58 0.59 0.61 0.63 0.61 0.60 0.60 0.55 0.47 0.39 0.40 0.29 0.30 0.35 0.53 0.53 0.42 0.22 0.16 0.17 0.22 0.22 0.22 0.16 0.19 0.15 0.17 0.18 0.19 0.21 0.26 0.25 0.30 0.33 0.30 0.26 0.34 0.34 0.34 0.33 0.30 0.31 0.21 0.22 0.14 0.11
0.67 0.62 0.61 0.59 0.63 0.61 0.62 0.61 0.57 0.49 0.41 0.42 0.33 0.19 0.40 0.52 0.46 0.28 0.16 0.17 0.20 0.26 0.25 0.18 0.18 0.17 0.18 0.18 0.19 0.17 0.18 0.22 0.27 0.26 0.29 0.29 0.28 0.26 0.35 0.31 0.24 0.26 0.26 0.26 0.25 0.21 0.15
0.71 0.66 0.63 0.58 0.61 0.61 0.62 0.62 0.59 0.53 0.44 0.38 0.28 0.16 0.45 0.48 0.21 0.24 0.18 0.21 0.25 0.23 0.27 0.22 0.21 0.20 0.19 0.19 0.18 0.17 0.17 0.20 0.26 0.28 0.22 0.27 0.25 0.22 0.26 0.37 0.37 0.32 0.28 0.28 0.21 0.18 0.20
0.72 0.73 0.66 0.59 0.60 0.63 0.63 0.61 0.59 0.57 0.51 0.36 0.24 0.25 0.49 0.41 0.18 0.20 0.23 0.23 0.25 0.22 0.21 0.21 0.19 0.21 0.23 0.19 0.15 0.18 0.19 0.25 0.27 0.24 0.21 0.26 0.21 0.17 0.20 0.30 0.34 0.33 0.37 0.32 0.28 0.24 0.18
0.78 0.77 0.72 0.64 0.62 0.63 0.65 0.64 0.63 0.57 0.54 0.42 0.28 0.20 0.30 0.37 0.32 0.24 0.21 0.20 0.20 0.26 0.23 0.24 0.21 0.21 0.20 0.18 0.19 0.17 0.18 0.22 0.27 0.25 0.26 0.27 0.21 0.17 0.15 0.19 0.26 0.25 0.30 0.34 0.33 0.23 0.20
0.88 0.81 0.75 0.68 0.66 0.66 0.65 0.62 0.63 0.59 0.55 0.44 0.31 0.24 0.30 0.21 0.26 0.28 0.27 0.24 0.20 0.19 0.24 0.24 0.20 0.19 0.17 0.16 0.16 0.16 0.18 0.19 0.24 0.27 0.29 0.25 0.16 0.18 0.18 0.22 0.24 0.27 0.27 0.30 0.31 0.31 0.25
0.89 0.85 0.79 0.74 0.68 0.65 0.63 0.59 0.61 0.59 0.55 0.37 0.26 0.27 0.35 0.29 0.29 0.25 0.24 0.23 0.21 0.20 0.20 0.18 0.18 0.19 0.20 0.17 0.16 0.16 0.18 0.18 0.19 0.25 0.24 0.27 0.16 0.18 0.17 0.20 0.22 0.23 0.28 0.31 0.31 0.32 0.34
0.92 0.88 0.82 0.80 0.77 0.75 0.73 0.68 0.65 0.61 0.55 0.38 0.44 0.46 0.33 0.26 0.24 0.22 0.20 0.21 0.20 0.23 0.23 0.25 0.23 0.23 0.22 0.21 0.25 0.23 0.24 0.23 0.22 0.21 0.20 0.23 0.19 0.17 0.16 0.20 0.21 0.19 0.27 0.30 0.31 0.34 0.34
0.87 0.88 0.86 0.80 0.75 0.71 0.69 0.69 0.65 0.62 0.59 0.51 0.48 0.45 0.33 0.23 0.24 0.21 0.22 0.24 0.21 0.23 0.22 0.23 0.24 0.22 0.24 0.32 0.32 0.29 0.25 0.24 0.24 0.21 0.23 0.22 0.22 0.23 0.19 0.20 0.14 0.20 0.29 0.35 0.34 0.36 0.36
0.97 0.94 0.88 0.84 0.82 0.80 0.83 0.83 0.77 0.72 0.68 0.58 0.59 0.45 0.35 0.24 0.24 0.21 0.21 0.22 0.23 0.22 0.20 0.21 0.23 0.26 0.30 0.27 0.21 0.17 0.17 0.19 0.18 0.22 0.25 0.28 0.26 0.25 0.20 0.18 0.18 0.19 0.29 0.31 0.32 0.32 0.38
0.98 0.95 0.92 0.91 0.92 0.93 0.91 0.87 0.85 0.82 0.80 0.76 0.68 0.63 0.46 0.31 0.24 0.29 0.27 0.28 0.22 0.22 0.23 0.25 0.32 0.37 0.35 0.27 0.22 0.17 0.16 0.15 0.13 0.18 0.30 0.32 0.32 0.29 0.25 0.19 0.15 0.21 0.31 0.38 0.37 0.28 0.39
1.06 1.04 1.02 1.00 0.99 0.96 0.95 0.93 0.91 0.90 0.89 0.80 0.74 0.79 0.65 0.49 0.51 0.50 0.42 0.37 0.41 0.36 0.33 0.38 0.43 0.43 0.48 0.35 0.29 0.27 0.22 0.21 0.17 0.18 0.22 0.25 0.29 0.26 0.25 0.23 0.25 0.30 0.34 0.41 0.27 0.28 0.41
1.09 1.08 1.06 1.02 1.01 0.98 0.96 0.96 0.95 0.94 0.94 0.89 0.80 0.85 0.71 0.58 0.59 0.61 0.59 0.53 0.53 0.51 0.46 0.50 0.47 0.49 0.46 0.38 0.34 0.31 0.26 0.26 0.24 0.24 0.24 0.23 0.24 0.25 0.28 0.25 0.22 0.34 0.36 0.32 0.37 0.42 0.43
1.00 0.99 0.98 0.98 0.96 0.94 0.94 0.93 0.92 0.92 0.92 0.93 0.80 0.91 0.89 0.68 0.63 0.75 0.73 0.74 0.72 0.69 0.60 0.56 0.51 0.47 0.46 0.41 0.40 0.38 0.31 0.31 0.27 0.22 0.30 0.24 0.28 0.26 0.28 0.28 0.35 0.38 0.35 0.39 0.41 0.42 0.43
Wind_Speed
9 9 10 10 11 11 11 11 12 12 12 12 13 14 15 17 18 20 22 25 26 28 28 29 28 28 24 20 17 17 17 14 12 10 7 5 2 5 9 14 19 24 26 28 26 25 27
8 8 9 10 11 11 11 12 12 12 13 13 13 15 16 17 18 19 21 23 26 26 28 27 27 26 24 21 21 18 15 14 12 10 8 5 3 4 8 11 17 20 24 27 27 25 28
7 7 8 9 10 11 11 12 12 13 13 13 14 15 16 17 18 19 20 22 24 26 26 27 26 25 24 22 22 19 15 13 12 10 8 6 3 2 6 9 13 17 19 25 27 25 25
6 6 7 8 9 11 11 11 12 13 13 14 15 16 17 18 18 19 19 20 23 25 24 27 24 24 22 24 22 19 16 14 13 11 9 7 4 2 4 7 9 15 16 19 24 27 26
6 6 6 7 8 10 11 11 12 12 14 15 16 17 18 18 19 20 20 19 21 23 23 24 25 24 24 25 23 20 16 15 14 12 10 8 5 1 1 5 7 10 14 17 19 25 25
7 6 6 6 7 9 10 11 11 12 13 14 16 17 18 19 20 21 21 18 18 21 23 20 26 21 25 24 23 21 19 15 14 14 11 11 6 3 1 2 6 8 12 14 17 19 24
9 8 7 6 7 8 10 10 11 11 12 14 15 16 17 19 20 21 22 18 17 18 22 21 21 22 23 25 22 22 21 18 14 14 13 12 10 4 1 1 4 6 10 12 14 17 20
11 10 9 8 7 8 9 10 11 11 11 13 14 15 17 18 19 21 21 19 17 16 19 20 20 21 21 23 22 22 23 19 17 14 14 12 12 7 1 1 2 4 6 10 13 13 18
12 12 11 10 9 8 9 10 11 10 11 12 14 15 16 17 18 19 19 20 18 16 17 20 20 20 21 20 20 21 22 19 18 17 14 11 10 9 5 2 1 4 5 7 11 14 15
14 14 13 12 11 10 10 10 11 10 11 12 13 14 16 17 15 17 18 19 19 16 17 22 21 20 20 19 18 19 20 19 19 17 15 10 10 10 7 4 1 3 5 8 9 10 15
16 15 14 14 12 11 11 11 11 11 11 12 13 14 15 15 14 16 17 18 18 15 16 21 21 21 22 19 18 18 19 18 17 17 16 13 12 10 7 5 4 4 5 7 9 10 12
18 17 16 15 14 13 12 12 12 12 12 13 13 14 14 14 14 15 16 17 16 16 13 18 19 21 22 20 19 19 18 18 15 16 15 13 13 9 7 7 5 4 5 6 8 11 12
20 19 18 17 16 15 14 14 14 14 14 14 14 14 13 14 14 15 15 15 15 13 16 17 17 19 19 19 19 20 19 19 17 17 17 15 12 12 10 8 6 6 4 5 7 9 14
22 20 19 18 17 16 16 16 16 15 16 16 14 14 14 14 14 15 15 14 13 13 13 16 17 17 17 19 17 19 19 19 17 17 14 14 13 13 12 9 6 6 5 2 5 8 12
24 22 20 19 19 18 18 17 17 17 17 16 15 15 15 15 15 15 14 13 12 12 13 15 17 15 17 16 16 18 16 16 16 16 16 15 11 12 11 10 8 7 5 5 4 7 10
25 23 22 20 20 19 18 19 19 19 19 17 17 16 16 16 15 15 14 14 13 13 13 14 14 14 16 16 17 17 16 14 15 15 15 13 13 12 11 10 9 7 6 6 5 6 7
25 24 23 21 21 20 20 20 20 20 20 19 18 17 17 16 15 15 14 15 15 15 14 13 14 15 15 16 16 16 14 15 14 14 15 13 12 14 14 9 8 8 8 7 6 6 8
26 24 24 22 22 21 21 21 21 21 21 19 19 18 17 17 17 17 16 16 16 16 15 16 15 15 15 16 16 15 15 14 14 14 15 13 12 14 13 10 8 8 8 7 6 9 9
27 25 24 23 23 21 21 20 21 21 21 20 20 20 20 19 18 18 18 18 18 16 17 15 17 16 16 16 16 15 16 16 15 14 14 14 13 15 16 11 11 10 10 9 9 9 10
28 26 25 24 23 22 22 22 22 21 22 21 20 20 20 19 19 19 19 19 19 18 18 18 19 18 17 18 18 18 17 17 16 18 16 15 13 12 13 15 13 14 14 13 11 11 13
27 26 25 24 23 24 23 23 22 22 23 22 21 21 20 20 20 20 20 20 20 20 20 20 20 20 18 19 19 19 18 20 19 18 16 16 17 15 18 19 17 21 21 16 15 18 15
25 25 24 24 24 23 23 23 23 23 23 22 22 22 22 23 23 22 22 22 22 22 20 22 21 21 20 21 20 22 21 20 20 18 18 18 19 18 19 20 17 19 19 16 17 19 19
24 24 24 24 25 25 25 24 25 25 24 23 23 24 24 24 23 22 23 23 23 22 23 22 22 22 23 26 26 27 25 25 24 21 20 19 19 18 18 17 19 18 14 14 14 13 11
25 25 25 25 25 24 24 24 24 24 24 24 25 25 24 26 24 24 24 25 25 25 27 25 24 24 26 25 26 26 27 28 28 26 22 20 18 18 21 18 14 14 18 13 14 16 15
25 24 24 23 23 23 24 24 24 23 24 24 25 25 25 26 27 27 27 27 28 28 27 29 29 28 27 26 26 26 25 25 22 21 20 19 18 19 18 18 22 19 13 13 14 16 14
22 23 22 22 23 23 24 24 24 24 24 24 24 23 25 26 27 26 27 27 26 27 28 26 24 24 24 23 23 24 24 24 21 19 20 17 19 18 17 19 19 17 16 17 16 18 13
25 25 24 24 24 23 24 25 25 25 26 26 26 27 27 29 30 27 27 26 26 26 26 27 26 27 27 26 25 26 26 25 24 23 20 19 19 22 22 22 23 22 18 14 14 17 12
21 21 21 20 20 21 22 23 24 24 25 26 27 29 29 31 33 31 30 29 29 28 29 31 31 29 26 25 25 26 27 27 27 27 24 22 20 21 20 21 25 19 15 17 20 19 20
15 16 17 19 21 22 23 24 26 27 28 29 28 28 30 32 33 33 36 37 36 37 34 32 32 29 28 27 28 28 30 29 29 31 28 28 29 28 27 27 26 25 26 26 24 24 25
Wind_Direction
19 19 20 19 18 18 16 14 11 8 6 5 2 360 358 358 359 1 3 5 4 5 5 5 6 7 10 9 2 352 353 355 358 357 351 329 296 230 210 211 208 207 209 211 214 214 210
11 14 16 17 17 17 17 15 13 12 10 8 5 2 360 359 359 360 1 3 5 5 6 6 8 9 13 13 4 357 357 0 2 4 1 356 310 237 213 212 205 209 211 211 213 216 211
359 6 11 14 15 15 14 14 14 13 12 10 6 3 1 360 359 359 359 1 4 5 6 7 9 12 13 13 11 10 9 8 7 6 2 355 332 254 223 212 211 208 210 210 211 213 216
340 352 1 8 10 12 11 12 12 12 11 9 7 6 3 1 0 359 358 0 3 5 7 11 11 15 15 15 13 15 13 12 8 6 2 356 341 260 215 219 209 205 206 204 214 212 215
315 330 342 351 1 6 7 8 9 10 11 10 9 8 7 6 5 2 359 358 2 8 10 13 16 19 17 14 17 14 12 10 7 11 13 7 10 6 221 202 204 207 206 209 216 214 215
292 305 320 334 346 355 0 2 5 7 8 10 10 11 11 10 7 5 1 359 6 11 13 14 18 19 17 15 16 17 17 14 15 14 21 22 21 38 57 176 200 210 209 210 214 216 218
276 285 296 310 327 342 350 354 357 0 3 6 8 9 10 10 9 8 9 10 9 11 16 18 14 18 14 15 20 20 20 19 19 25 22 21 30 25 313 187 196 205 207 216 217 218 219
269 273 279 290 304 323 336 344 348 351 355 360 2 4 5 6 7 10 13 18 16 11 8 13 12 12 13 17 20 21 21 26 26 19 16 22 24 15 342 230 213 210 211 221 223 222 220
267 268 271 276 288 303 319 332 339 341 346 352 355 358 359 359 3 9 14 16 12 13 15 10 11 10 10 15 17 18 22 24 26 21 18 24 17 17 26 23 270 225 221 227 228 235 226
263 265 266 269 277 289 304 318 328 332 335 340 347 351 353 355 2 3 7 6 8 11 19 10 13 13 10 11 13 15 19 21 21 19 18 14 9 15 17 20 328 244 240 242 239 232 231
262 262 265 265 270 279 291 303 315 322 326 328 334 342 347 354 355 359 358 360 4 9 16 2 8 10 8 16 7 12 12 17 16 15 23 16 12 10 15 7 346 259 264 245 244 234 235
260 260 262 263 265 272 281 291 301 310 316 319 323 330 339 343 348 351 353 356 360 10 360 3 6 10 14 15 12 7 11 13 13 16 17 14 17 22 8 357 351 318 274 262 246 240 239
256 258 260 263 265 268 275 282 292 300 306 311 313 319 328 334 337 342 347 351 358 11 358 353 359 4 8 7 10 15 13 13 16 12 13 9 15 14 15 360 354 354 344 297 265 244 235
253 256 258 262 264 268 270 277 285 294 298 302 303 309 315 324 328 334 340 347 358 346 344 352 352 354 0 6 7 7 13 12 14 17 9 12 3 8 4 6 355 339 327 293 276 248 248
251 253 256 259 264 267 270 275 282 288 293 296 297 300 305 313 319 326 334 339 329 333 340 342 344 351 351 355 357 3 6 5 7 10 14 7 356 357 357 357 355 357 337 309 298 277 256
248 251 253 257 262 265 270 274 281 285 289 290 291 294 296 303 309 317 324 316 320 326 332 337 339 343 342 343 351 353 353 355 359 4 4 2 354 356 344 346 346 336 337 340 313 291 272
246 248 252 255 261 264 269 274 281 284 287 285 289 290 290 296 302 310 308 306 311 314 321 325 324 327 327 334 338 338 338 342 349 353 354 355 356 347 348 340 334 339 327 326 314 283 278
246 247 250 254 260 264 271 274 279 283 286 282 284 286 287 290 297 301 301 303 308 310 311 313 316 314 318 324 327 330 328 329 336 339 342 342 343 342 338 344 337 324 314 306 307 298 285
245 248 251 253 259 264 270 274 279 281 283 280 281 281 284 286 288 294 296 298 300 303 303 308 308 307 315 315 318 317 321 326 326 327 329 330 332 336 342 345 334 322 304 296 303 302 280
245 248 253 253 257 263 268 274 277 281 283 279 279 282 283 284 285 289 293 294 297 298 299 301 304 305 307 309 305 313 313 318 318 317 318 318 315 312 317 311 317 308 304 292 285 287 285
243 249 250 252 256 263 268 272 276 280 281 276 278 276 279 282 284 286 290 293 293 295 295 296 301 295 297 302 303 302 305 310 312 312 312 309 305 301 305 306 306 299 294 288 273 275 268
244 247 250 253 259 264 268 270 274 279 280 275 275 276 278 280 283 283 284 287 287 291 291 294 292 298 292 292 291 297 299 302 303 306 303 306 304 304 302 304 304 305 295 287 282 278 276
244 248 251 255 260 264 267 271 274 277 276 275 276 277 278 278 279 282 282 284 288 290 290 292 290 294 293 287 290 291 292 293 294 294 292 298 298 304 301 308 309 306 300 297 295 282 282
246 251 253 258 261 265 268 272 275 276 276 274 275 277 277 277 278 279 283 284 286 287 288 290 290 289 292 294 295 295 292 291 288 286 284 291 293 295 299 304 297 296 307 298 291 290 265
249 251 254 257 260 265 269 272 272 276 276 277 275 275 275 276 278 281 280 283 287 287 285 285 287 288 291 292 295 298 298 299 293 286 283 280 284 294 294 292 296 300 293 298 296 291 281
246 251 256 259 264 267 271 271 273 273 274 276 277 276 276 277 279 281 285 286 287 288 290 287 290 291 292 290 291 289 292 291 293 293 300 287 283 282 292 289 287 295 296 294 299 294 264
252 256 259 263 263 267 269 271 273 274 274 274 277 276 278 279 280 279 283 283 286 287 285 288 289 290 288 284 283 284 284 282 284 283 285 287 283 272 276 284 289 290 289 289 293 286 262
251 253 256 261 264 269 273 274 275 276 277 276 279 275 278 281 280 278 278 279 284 282 284 288 291 286 286 282 281 282 282 281 284 281 278 275 275 278 279 277 285 279 283 278 286 280 271
251 255 259 262 270 274 276 277 277 278 280 280 279 280 280 278 283 283 277 277 278 278 283 281 282 283 282 282 282 284 282 281 281 282 280 278 272 275 266 271 282 276 280 280 286 279 275